Starlink 1718

operational
NORAD ID: 46674 Int'l Des: 2020-073 Owner: SPXS Country: US Constellation: starlink
LEOCIRCULARSTARLINK_TYPE

About Starlink 1718

Description loading...

Live Position

Loading 3D Globe...

Upcoming Passes

Altitude History

Altitude vs Time

uPlot chart will show altitude changes over time

Two-Line Element Set

1 46674U 20073E 25350.98187764 .00001505 00000-0 11995-3 0 9993
2 46674 53.0530 252.9049 0001443 88.9073 271.2082 15.06395519284665
Epoch: Dec 16, 2025 • Age: 6 hours

Current Status

Altitude 564.6 km
Velocity 7.58 km/s
Sub-Earth Point -47.96°S, 39.81°W
Launch Date Oct 18, 2020
Age 5.1 years
Type internet

Technical Details

Classification Payload
Mass 260.00 kg
Dry Mass 248.00 kg
Total Mass 260.00 kg
Length 0.20 m
Diameter 2.80 m
Span 9.00 m
Shape Box + pan
Manufacturer SPXS
Bus Type Starlink
Phase Status In Orbit
Owner/State SPXS/US

Large Constellations

Loading constellations...